DL2GKM-6 Weather Reports


Display with metric or nautical units.
time (UTC)temp
F
wind
direction
speed
MPH
gust
MPH
rain 1hr
in
rain 24hr
in
rain mn
in
humidity
%
barometer
mb
20260507025221 50 208 0.0 0.0 0.00 5.08 0.01 81 1010.7
20260507024741 50 253 8.0 8.0 0.00 5.08 0.01 81 1010.7
20260507024321 50 112 0.0 0.0 0.00 5.08 0.00 81 1010.7
20260507023916 50 199 1.0 0.0 0.00 5.08 0.00 81 1010.7
20260507023428 50 250 6.0 4.0 0.00 5.08 0.00 80 1010.7
20260507022946 50 104 9.0 3.0 0.00 5.08 0.00 80 1010.7
20260507022546 50 254 4.0 3.0 0.00 5.08 0.00 80 1010.5
20260507022138 50 116 5.0 2.0 0.00 5.08 0.00 80 1010.5
20260507021736 50 196 6.0 5.0 0.00 5.08 0.00 80 1010.4
20260507021311 50 10 2.0 1.0 0.00 5.08 0.00 80 1010.4
20260507020901 50 127 0.0 1.0 0.00 5.08 0.00 80 1010.4
20260507020501 50 209 4.0 6.0 0.00 5.08 0.00 79 1010.3
20260507020041 50 165 8.0 5.0 0.00 5.08 0.00 80 1010.3
20260507015631 50 208 2.0 3.0 0.00 5.08 0.00 80 1010.3
20260507015155 50 267 8.0 4.0 0.00 5.08 0.00 80 1010.2
20260507014726 50 215 3.0 5.0 0.00 5.08 0.00 80 1010.2
20260507014321 50 219 6.0 2.0 0.00 5.08 0.00 80 1010.2
20260507013906 50 196 9.0 8.0 0.00 5.08 0.00 80 1010.1
20260507013421 50 186 3.0 3.0 0.00 5.08 0.00 80 1010.1
20260507012936 50 206 4.0 9.0 0.00 5.08 0.00 80 1010.0
20260507012446 50 10 0.0 0.0 0.00 5.08 0.00 80 1010.0
20260507012006 50 247 0.0 0.0 0.00 5.08 0.00 80 1010.0
20260507011601 50 217 5.0 4.0 0.00 5.08 0.00 80 1010.0
20260507011108 50 206 2.0 6.0 0.00 5.08 0.00 80 1010.0
20260507010656 50 179 4.0 6.0 0.00 5.08 0.00 80 1010.0
20260507010248 50 172 3.0 7.0 0.00 5.08 0.00 80 1010.0
20260507005826 50 246 7.0 4.0 0.00 5.08 0.00 80 1010.0
20260507005348 50 250 4.0 17.0 0.00 5.08 0.00 79 1010.0
20260507004906 50 134 12.0 7.0 0.00 5.08 0.00 79 1010.0
20260507004446 50 71 0.0 0.0 0.00 5.08 0.00 80 1009.9
20260507003951 50 169 7.0 3.0 0.00 5.08 0.00 80 1009.9
20260507003548 50 175 0.0 3.0 0.00 5.08 0.00 80 1009.8
20260507003056 50 289 4.0 4.0 0.00 5.08 0.00 80 1009.8
20260507002616 50 280 0.0 2.0 0.00 5.08 0.00 80 1009.8
20260507002211 50 83 2.0 1.0 0.00 5.08 0.00 80 1009.8
20260507001746 50 109 3.0 1.0 0.00 5.08 0.00 80 1009.8
20260507001256 50 104 1.0 2.0 0.00 5.08 0.00 80 1009.8
20260507000851 50 181 1.0 2.0 0.00 5.08 0.00 80 1009.8
20260507000412 50 251 7.0 2.0 0.00 5.08 0.00 80 1009.8
20260506235936 50 288 0.0 0.0 0.00 5.08 0.00 80 1009.7
20260506235531 50 288 0.0 0.0 0.00 5.08 0.00 80 1009.8
20260506235116 50 330 0.0 2.0 0.00 5.08 0.00 80 1009.8
20260506234651 50 176 1.0 5.0 0.00 5.08 0.00 80 1009.7
20260506234226 50 213 4.0 5.0 0.00 5.08 0.00 80 1009.7
20260506233821 50 147 5.0 8.0 0.00 5.08 0.00 80 1009.7
20260506233326 50 148 6.0 6.0 0.00 5.08 0.00 81 1009.7
20260506232921 50 178 0.0 0.0 0.00 5.08 0.00 81 1009.7
20260506232508 50 152 0.0 0.0 0.00 5.08 0.00 81 1009.7
20260506232041 50 137 3.0 1.0 0.00 5.08 0.00 81 1009.7
20260506231546 50 144 3.0 0.0 0.00 5.08 0.00 81 1009.7
20260506231136 50 40 0.0 0.0 0.00 5.08 0.00 82 1009.7
20260506230706 50 217 0.0 0.0 0.00 5.08 0.00 82 1009.6
20260506230236 50 304 8.0 10.0 0.00 5.08 0.00 82 1009.7
20260506225816 50 280 1.0 6.0 0.00 5.08 0.05 82 1009.8
20260506225406 50 103 4.0 1.0 0.00 5.08 0.05 82 1009.8
20260506224928 50 258 5.0 4.0 0.00 5.08 0.05 82 1009.8
20260506224521 50 167 4.0 4.0 0.00 5.08 0.05 82 1009.8
20260506224041 50 112 2.0 0.0 0.00 5.08 0.05 82 1009.7
20260506223621 50 128 0.0 2.0 0.00 5.08 0.05 82 1009.7
20260506223126 50 288 7.0 4.0 0.00 5.08 0.05 81 1009.7
20260506222711 50 189 3.0 0.0 0.00 5.08 0.05 81 1009.7
20260506222306 50 219 6.0 0.0 0.00 5.08 0.05 81 1009.8
20260506221901 50 179 9.0 1.0 0.00 5.08 0.05 81 1009.8
20260506221416 50 257 5.0 9.0 0.00 5.08 0.05 81 1009.8
20260506220921 50 28 3.0 4.0 0.00 5.08 0.05 81 1009.7
20260506220441 50 230 8.0 7.0 0.00 5.08 0.05 81 1009.7
20260506215948 50 222 8.0 10.0 0.00 5.08 0.05 82 1009.8
20260506215501 50 198 8.0 4.0 0.00 5.08 0.05 82 1009.7
20260506215026 50 217 7.0 6.0 0.00 5.08 0.05 82 1009.6
20260506214556 50 306 4.0 6.0 0.00 5.08 0.05 82 1009.5
20260506214115 50 216 0.0 8.0 0.00 5.08 0.05 82 1009.5
20260506213636 50 199 12.0 10.0 0.00 5.08 0.05 82 1009.4
20260506213156 50 188 5.0 2.0 0.00 5.08 0.05 82 1009.4
20260506212736 50 191 5.0 6.0 0.00 5.08 0.05 82 1009.5
20260506212246 50 92 6.0 1.0 0.00 5.08 0.05 83 1009.4
20260506211828 51 154 2.0 7.0 0.00 5.08 0.05 83 1009.3
20260506211341 51 80 1.0 3.0 0.00 5.08 0.05 83 1009.3
20260506210928 51 215 2.0 13.0 0.00 5.08 0.05 83 1009.2
20260506210436 51 161 3.0 5.0 0.00 5.08 0.05 83 1009.2
20260506205941 51 234 5.0 8.0 0.00 5.08 0.05 83 1009.2
20260506205508 51 158 2.0 6.0 0.00 5.07 0.04 83 1009.2
20260506205013 51 71 2.0 0.0 0.00 5.07 0.04 83 1009.3
20260506204551 51 178 1.0 6.0 0.00 5.07 0.04 83 1009.2
20260506204138 51 162 1.0 0.0 0.00 5.07 0.04 83 1009.3
20260506203731 51 88 5.0 2.0 0.00 5.07 0.04 82 1009.2
20260506203246 51 243 7.0 8.0 0.00 5.07 0.04 82 1009.2
20260506202746 51 222 5.0 2.0 0.00 5.07 0.04 83 1009.1
20260506202326 51 7 2.0 3.0 0.00 5.07 0.04 83 1009.0
20260506201846 51 200 5.0 10.0 0.00 5.07 0.04 84 1009.0
20260506201406 52 264 1.0 13.0 0.00 5.07 0.04 84 1009.0
20260506200911 52 205 2.0 5.0 0.00 5.07 0.04 84 1009.0
20260506200441 52 185 8.0 4.0 0.00 5.07 0.04 85 1009.0
20260506195946 52 172 6.0 5.0 0.00 5.07 0.04 85 1008.9
20260506195518 52 192 7.0 6.0 0.00 5.07 0.04 85 1008.7
20260506195116 52 110 2.0 7.0 0.00 5.07 0.04 86 1008.7
20260506194621 52 222 1.0 0.0 0.00 5.07 0.04 87 1008.6
20260506194148 52 128 3.0 0.0 0.00 5.07 0.04 87 1008.5
20260506193716 52 304 5.0 0.0 0.00 5.07 0.04 87 1008.5
20260506193216 52 181 8.0 2.0 0.00 5.07 0.04 87 1008.4
20260506192726 52 263 0.0 0.0 0.00 5.07 0.04 88 1008.4
20260506192311 52 123 0.0 0.0 0.00 5.07 0.04 88 1008.2
20260506191841 52 161 0.0 0.0 0.00 5.07 0.04 88 1008.2
20260506191356 52 164 1.0 0.0 0.00 5.07 0.04 88 1008.3
20260506190908 52 155 3.0 0.0 0.00 5.07 0.04 88 1008.2
20260506190421 52 161 2.0 0.0 0.00 5.07 0.04 89 1008.1
20260506190008 52 182 1.0 0.0 0.00 5.07 0.04 89 1008.1
20260506185508 52 182 1.0 0.0 0.00 5.07 0.04 89 1008.0
20260506185106 52 226 3.0 13.0 0.00 5.07 0.04 89 1008.0
20260506184701 52 114 0.0 0.0 0.00 5.07 0.04 89 1007.9
20260506184216 52 181 6.0 4.0 0.00 5.07 0.04 89 1007.8
20260506183806 52 217 3.0 3.0 0.00 5.07 0.04 90 1007.8
20260506183401 51 116 4.0 0.0 0.00 5.07 0.04 90 1007.8
20260506182946 51 154 0.0 1.0 0.00 5.07 0.04 90 1007.7
20260506182528 51 353 3.0 0.0 0.00 5.07 0.04 90 1007.7
20260506182101 51 216 1.0 0.0 0.00 5.07 0.04 90 1007.6
20260506181628 52 232 0.0 9.0 0.00 5.07 0.04 90 1007.6
20260506181131 52 215 4.0 12.0 0.00 5.07 0.04 90 1007.6
20260506180721 52 103 0.0 0.0 0.00 5.07 0.04 90 1007.6
20260506180241 52 271 0.0 1.0 0.00 5.07 0.04 90 1007.6
20260506175818 52 182 5.0 4.0 0.00 5.07 0.04 91 1007.6
20260506175328 52 179 0.0 3.0 0.00 5.07 0.04 91 1007.6
20260506174841 52 8 6.0 0.0 0.00 5.07 0.04 91 1007.4
20260506174408 52 151 0.0 0.0 0.00 5.07 0.04 91 1007.4
20260506174006 52 151 0.0 0.0 0.00 5.07 0.04 91 1007.3
20260506173548 52 151 0.0 0.0 0.00 5.07 0.04 91 1007.3
20260506173106 52 151 0.0 0.0 0.00 5.07 0.04 92 1007.2
20260506172608 52 62 7.0 0.0 0.00 5.07 0.04 92 1007.2
20260506172116 52 158 4.0 0.0 0.00 5.07 0.04 92 1007.3
20260506171656 52 69 0.0 0.0 0.00 5.07 0.04 92 1007.2
20260506171208 52 69 0.0 0.0 0.00 5.07 0.03 92 1007.1
20260506170806 52 69 0.0 0.0 0.00 5.07 0.03 92 1007.1
20260506170321 52 69 0.0 0.0 0.00 5.07 0.03 92 1007.1
20260506165906 52 69 0.0 0.0 0.00 5.07 0.03 92 1007.1
20260506165441 52 69 3.0 0.0 0.00 5.07 0.03 92 1007.2
20260506165016 52 294 0.0 0.0 0.00 5.07 0.03 92 1007.2
20260506164611 52 217 1.0 0.0 0.00 5.07 0.03 92 1007.2
20260506164136 52 13 5.0 6.0 0.00 5.07 0.03 92 1007.2
20260506163736 52 289 5.0 7.0 0.00 5.07 0.03 91 1007.2
20260506163252 52 0 3.0 7.0 0.00 5.07 0.03 91 1007.1
20260506162811 52 13 4.0 6.0 0.00 5.07 0.03 91 1006.9
20260506162408 52 335 9.0 7.0 0.00 5.07 0.03 91 1006.9
20260506161956 53 14 9.0 3.0 0.00 5.07 0.03 91 1006.9
20260506161501 53 360 6.0 5.0 0.00 5.07 0.03 91 1006.8
20260506161040 53 254 8.0 5.0 0.00 5.07 0.03 90 1006.8
20260506160628 53 61 11.0 12.0 0.00 5.07 0.03 90 1006.8
20260506160221 53 344 3.0 0.0 0.00 5.07 0.03 90 1006.7
20260506155746 54 311 5.0 3.0 0.00 5.07 0.03 90 1006.8
20260506155326 54 326 5.0 1.0 0.00 5.07 0.03 90 1006.7
20260506154911 54 92 8.0 3.0 0.00 5.07 0.03 90 1006.7
20260506154421 54 346 6.0 5.0 0.00 5.07 0.03 90 1006.7
20260506154016 54 28 5.0 4.0 0.00 5.07 0.03 90 1006.6
20260506153606 54 306 1.0 4.0 0.00 5.07 0.03 89 1006.6
20260506153201 54 311 0.0 1.0 0.00 5.07 0.03 89 1006.6
20260506152716 54 287 4.0 3.0 0.00 5.07 0.03 89 1006.6
20260506152216 54 200 6.0 2.0 0.00 5.07 0.03 88 1006.6
20260506151801 55 265 4.0 2.0 0.00 5.07 0.03 88 1006.6
20260506151306 55 126 0.0 0.0 0.00 5.07 0.03 89 1006.5
20260506150816 54 126 0.0 0.0 0.00 5.07 0.03 89 1006.5
20260506150408 54 126 1.0 0.0 0.00 5.07 0.03 89 1006.5
20260506145956 54 174 0.0 0.0 0.00 5.07 0.03 89 1006.5
20260506145541 54 174 0.0 0.0 0.00 5.07 0.03 89 1006.5
20260506145106 54 174 0.0 0.0 0.00 5.07 0.03 89 1006.4
20260506144611 54 174 0.0 0.0 0.00 5.07 0.03 89 1006.3
20260506144206 54 174 0.0 0.0 0.00 5.07 0.03 88 1006.4
20260506143741 55 174 0.0 0.0 0.00 5.07 0.03 88 1006.3
20260506143328 55 174 0.0 0.0 0.00 5.07 0.03 87 1006.3
20260506142828 54 174 0.0 0.0 0.00 5.07 0.02 86 1006.2
20260506142333 54 174 0.0 0.0 0.00 5.07 0.02 86 1006.1
20260506141936 54 174 0.0 0.0 0.00 5.07 0.02 86 1006.1
20260506141521 54 277 1.0 2.0 0.00 5.07 0.02 85 1006.1
20260506141036 55 175 0.0 0.0 0.00 5.07 0.02 85 1006.2
20260506140611 55 258 1.0 6.0 0.00 5.07 0.02 85 1006.1
20260506140121 55 11 2.0 0.0 0.00 5.07 0.02 85 1006.0
20260506135634 55 343 1.0 3.0 0.00 5.07 0.02 85 1006.0
20260506135221 56 172 0.0 0.0 0.00 5.07 0.02 85 1006.0
20260506134811 55 172 0.0 1.0 0.00 5.07 0.02 85 1006.0
20260506134348 55 127 0.0 0.0 0.00 5.07 0.02 84 1006.0
20260506133906 56 137 0.0 3.0 0.00 5.07 0.02 84 1005.9
20260506133426 56 200 0.0 0.0 0.00 5.07 0.02 83 1006.0
20260506132956 56 200 0.0 0.0 0.00 5.07 0.02 83 1006.0
20260506132518 56 213 0.0 0.0 0.00 5.07 0.02 82 1005.9
20260506132031 56 213 0.0 0.0 0.00 5.07 0.02 80 1005.7
20260506131616 57 213 0.0 0.0 0.00 5.07 0.02 78 1005.7
20260506131156 57 213 0.0 0.0 0.00 5.07 0.02 77 1005.7
20260506130701 58 213 0.0 0.0 0.00 5.07 0.02 76 1005.6
20260506130248 58 213 0.0 0.0 0.00 5.07 0.02 76 1005.6
20260506125836 58 189 2.0 3.0 0.00 5.07 0.02 76 1005.6
20260506125346 59 196 5.0 2.0 0.00 5.07 0.02 75 1005.5
20260506124921 59 244 6.0 4.0 0.00 5.07 0.02 74 1005.4
20260506124516 59 275 0.0 0.0 0.00 5.07 0.01 74 1005.3
20260506124051 59 275 0.0 0.0 0.00 5.07 0.01 76 1005.3
20260506123616 59 275 0.0 0.0 0.00 5.07 0.01 77 1005.3
20260506123141 59 275 0.0 0.0 0.00 5.07 0.01 77 1005.3
20260506122736 59 275 0.0 0.0 0.00 5.07 0.01 79 1005.3
20260506122316 58 275 0.0 0.0 0.00 5.07 0.01 80 1005.3
20260506121816 58 275 0.0 0.0 0.00 5.07 0.01 80 1005.3
20260506121346 58 275 0.0 0.0 0.00 5.07 0.01 81 1005.3
20260506120913 58 304 3.0 4.0 0.00 5.07 0.01 84 1005.3
20260506120426 58 263 2.0 0.0 0.00 5.07 0.01 84 1005.3
20260506115931 57 323 2.0 1.0 0.00 5.07 0.01 84 1005.3
20260506115506 57 359 2.0 6.0 0.00 5.07 0.01 83 1005.3
20260506115021 57 95 0.0 0.0 0.00 5.07 0.01 83 1005.3
20260506114616 57 95 0.0 0.0 0.00 5.07 0.01 83 1005.4
20260506114126 57 95 1.0 0.0 0.00 5.07 0.01 83 1005.3
20260506113638 57 112 5.0 4.0 0.00 5.07 0.01 83 1005.4
20260506113211 57 292 0.0 0.0 0.00 5.07 0.01 84 1005.4
20260506112746 57 316 6.0 5.0 0.00 5.07 0.01 83 1005.4
20260506112248 57 325 3.0 4.0 0.00 5.07 0.01 82 1005.5
20260506111828 57 124 3.0 2.0 0.00 5.07 0.01 81 1005.6
20260506111408 57 119 3.0 0.0 0.00 5.07 0.01 80 1005.6
20260506111001 57 134 6.0 5.0 0.00 5.07 0.01 81 1005.6
20260506110526 58 137 0.0 0.0 0.00 5.07 0.01 80 1005.6
20260506110026 58 131 3.0 3.0 0.00 5.07 0.00 78 1005.6
20260506105616 58 136 4.0 1.0 0.00 5.07 0.00 77 1005.5
20260506105216 59 134 3.0 2.0 0.00 5.07 0.00 75 1005.4
20260506104756 59 114 3.0 7.0 0.00 5.07 0.00 73 1005.4
20260506104356 60 32 2.0 0.0 0.00 5.07 0.00 73 1005.5
20260506103916 60 58 4.0 1.0 0.00 5.07 0.00 70 1005.5
20260506103431 61 72 4.0 1.0 0.00 5.07 0.00 64 1005.5
20260506103016 61 69 1.0 6.0 0.00 5.07 0.00 62 1005.6
20260506102528 62 16 1.0 0.0 0.00 5.07 0.00 62 1005.5
20260506102041 62 353 6.0 7.0 0.00 5.07 0.00 61 1005.6
20260506101626 62 333 5.0 7.0 0.00 5.07 0.00 61 1005.6
20260506101208 62 344 5.0 3.0 0.00 5.07 0.00 61 1005.6
20260506100726 62 280 6.0 2.0 0.00 5.07 0.00 60 1005.7
20260506100246 62 320 6.0 0.0 0.00 5.07 0.00 59 1005.7
20260506095808 62 316 2.0 2.0 0.00 5.07 0.00 57 1005.7
20260506095308 62 55 4.0 6.0 0.00 5.07 0.00 56 1005.8
20260506094856 62 311 1.0 2.0 0.00 5.07 0.00 57 1005.8
20260506094356 62 308 2.0 6.0 0.00 5.07 0.00 56 1005.7
20260506093916 62 323 2.0 1.0 0.00 5.07 0.00 55 1005.8
20260506093416 62 330 0.0 1.0 0.00 5.07 0.00 56 1005.8
20260506092919 62 11 1.0 7.0 0.00 5.07 0.00 58 1005.8
20260506092446 62 253 0.0 0.0 0.00 5.07 0.00 58 1005.8
20260506091946 61 329 0.0 4.0 0.00 5.07 0.00 58 1005.8
20260506091526 62 21 2.0 7.0 0.00 5.07 0.00 58 1005.8
20260506091108 61 27 3.0 0.0 0.00 5.07 0.00 61 1005.8
20260506090648 61 360 0.0 0.0 0.00 5.07 0.00 61 1005.9
20260506090246 61 360 0.0 0.0 0.00 5.07 0.00 62 1005.8
20260506085846 60 78 2.0 2.0 0.00 5.07 0.00 64 1005.8
20260506085441 60 160 4.0 2.0 0.00 5.07 0.00 66 1005.8
20260506085036 60 99 0.0 0.0 0.00 5.07 0.00 67 1005.8
20260506084616 59 99 0.0 0.0 0.00 5.07 0.00 69 1005.8
20260506084148 59 99 0.0 0.0 0.00 5.07 0.00 69 1005.8
20260506083711 58 110 1.0 0.0 0.00 5.07 0.00 69 1005.8
20260506083256 58 8 2.0 1.0 0.00 5.07 0.00 70 1005.8
20260506082756 58 38 3.0 1.0 0.00 5.07 0.00 69 1005.8
20260506082346 58 23 0.0 0.0 0.00 5.07 0.00 69 1005.9
20260506081846 58 6 5.0 2.0 0.00 5.07 0.00 70 1005.9
20260506081356 59 68 2.0 6.0 0.00 5.07 0.00 69 1005.9
20260506080929 59 6 5.0 4.0 0.00 5.07 0.00 69 1005.9
20260506080451 59 11 1.0 5.0 0.00 5.07 0.00 69 1005.9
20260506073156 57 95 0.0 0.0 0.00 5.07 0.00 74 1006.0
20260506072719 56 95 0.0 0.0 0.00 5.07 0.00 75 1005.9
20260506062336 52 151 4.0 5.0 0.00 5.07 0.00 81 1006.0
20260506061926 52 126 0.0 0.0 0.00 5.07 0.00 81 1005.9
20260506061426 52 184 4.0 3.0 0.00 5.07 0.00 81 1006.0
20260506061021 52 144 6.0 4.0 0.00 5.07 0.00 81 1006.0
20260506060606 51 151 4.0 4.0 0.00 5.07 0.00 81 1006.0
20260506060146 51 152 4.0 0.0 0.00 5.07 0.00 81 1006.1
20260506051212 50 144 8.0 9.0 0.00 5.07 0.00 82 1006.3
20260506050754 50 145 4.0 9.0 0.00 5.07 0.00 82 1006.3
20260506050351 50 138 4.0 5.0 0.00 5.07 0.00 82 1006.4
20260506045037 50 165 7.0 10.0 0.00 5.07 0.00 83 1006.5
20260506044631 50 137 7.0 7.0 0.00 5.07 0.00 83 1006.5
20260506044201 50 198 8.0 9.0 0.00 5.07 0.00 83 1006.4
20260506043721 50 191 7.0 7.0 0.00 5.07 0.00 82 1006.4
20260506043234 50 144 8.0 8.0 0.00 5.07 0.00 82 1006.4
20260506042811 50 176 6.0 6.0 0.00 5.07 0.00 82 1006.3
20260506042334 50 160 4.0 3.0 0.00 5.07 0.00 82 1006.3
20260506041911 50 171 4.0 4.0 0.00 5.07 0.00 82 1006.3
20260506041421 50 151 0.0 5.0 0.00 5.07 0.00 82 1006.2
20260506040926 50 191 0.0 0.0 0.00 5.07 0.00 82 1006.3
20260506040434 50 164 0.0 0.0 0.00 5.07 0.00 82 1006.2
20260506040001 50 164 0.0 0.0 0.00 5.07 0.00 82 1006.1
20260506035514 50 120 4.0 4.0 0.00 5.07 0.00 82 1006.2
20260506035041 50 140 0.0 0.0 0.00 5.07 0.00 82 1006.2
20260506034551 50 140 0.0 0.0 0.00 5.07 0.00 82 1006.3
20260506034116 50 140 0.0 0.0 0.00 5.07 0.00 82 1006.4
20260506033711 50 140 0.0 0.0 0.00 5.07 0.00 82 1006.3
20260506033311 50 140 0.0 0.0 0.00 5.07 0.00 82 1006.4
20260506032854 50 138 4.0 4.0 0.00 5.07 0.00 82 1006.5
20260506032416 50 126 0.0 0.0 0.00 5.07 0.00 82 1006.6
20260506031946 50 126 0.0 0.0 0.00 5.07 0.00 82 1006.6
20260506031516 50 126 2.0 0.0 0.00 5.07 0.00 83 1006.6
20260506031111 50 88 0.0 0.0 0.00 5.07 0.00 83 1006.7
20260506030621 50 144 2.0 5.0 0.00 5.07 0.00 83 1006.7
20260506030136 50 175 1.0 0.0 0.00 5.07 0.00 83 1006.7
20260506025721 50 97 0.0 0.0 0.00 5.07 0.00 83 1006.7